| time (UTC) | temp F | wind direction | speed MPH | gust MPH | rain 1hr in | rain 24hr in | rain mn in | humidity % | barometer mb |
| 20260903125502 | 79 | 181 | 7.0 | 9.0 | 0.00 | 0.00 | 0.00 | 89 | 1014.5 |
| 20260903124957 | 78 | 225 | 7.0 | 9.0 | 0.00 | 0.00 | 0.00 | 89 | 1014.7 |
| 20260903124452 | 78 | 196 | 7.0 | 8.0 | 0.00 | 0.00 | 0.00 | 89 | 1014.6 |
| 20260903123951 | 78 | 212 | 8.0 | 11.0 | 0.00 | 0.00 | 0.00 | 90 | 1014.5 |
| 20260903123446 | 78 | 224 | 9.0 | 10.0 | 0.00 | 0.00 | 0.00 | 90 | 1014.2 |
| 20260903122944 | 78 | 216 | 8.0 | 9.0 | 0.00 | 0.00 | 0.00 | 90 | 1014.3 |
| 20260903122438 | 78 | 211 | 9.0 | 10.0 | 0.00 | 0.00 | 0.00 | 90 | 1014.1 |
| 20260903121937 | 78 | 196 | 9.0 | 10.0 | 0.00 | 0.00 | 0.00 | 90 | 1014.2 |
| 20260903121432 | 78 | 201 | 9.0 | 10.0 | 0.00 | 0.00 | 0.00 | 90 | 1014.2 |
| 20260903120929 | 78 | 164 | 9.0 | 10.0 | 0.00 | 0.00 | 0.00 | 90 | 1014.4 |
| 20260903120427 | 78 | 239 | 6.0 | 8.0 | 0.00 | 0.00 | 0.00 | 90 | 1014.1 |
| 20260903115926 | 78 | 223 | 10.0 | 11.0 | 0.00 | 0.00 | 0.00 | 90 | 1014.3 |
| 20260903115426 | 78 | 182 | 9.0 | 11.0 | 0.00 | 0.00 | 0.00 | 90 | 1014.3 |
| 20260903114921 | 78 | 183 | 7.0 | 8.0 | 0.00 | 0.00 | 0.00 | 90 | 1014.2 |
| 20260903114417 | 78 | 223 | 10.0 | 11.0 | 0.00 | 0.00 | 0.00 | 90 | 1014.2 |
| 20260903113912 | 78 | 172 | 9.0 | 11.0 | 0.00 | 0.00 | 0.00 | 90 | 1014.1 |
| 20260903113408 | 78 | 205 | 9.0 | 10.0 | 0.00 | 0.00 | 0.00 | 90 | 1014.2 |
| 20260903112903 | 78 | 215 | 10.0 | 11.0 | 0.00 | 0.00 | 0.00 | 90 | 1014.1 |
| 20260903112359 | 78 | 185 | 11.0 | 14.0 | 0.00 | 0.00 | 0.00 | 90 | 1014.4 |
| 20260903111858 | 78 | 233 | 7.0 | 10.0 | 0.00 | 0.00 | 0.00 | 90 | 1014.1 |
| 20260903111357 | 78 | 202 | 9.0 | 10.0 | 0.00 | 0.00 | 0.00 | 90 | 1014.0 |
| 20260903110854 | 78 | 194 | 8.0 | 10.0 | 0.00 | 0.00 | 0.00 | 90 | 1014.1 |
| 20260903110349 | 78 | 215 | 8.0 | 9.0 | 0.00 | 0.00 | 0.00 | 90 | 1014.0 |
| 20260903105844 | 78 | 223 | 9.0 | 10.0 | 0.00 | 0.00 | 0.00 | 90 | 1013.9 |
| 20260903105339 | 78 | 231 | 10.0 | 13.0 | 0.00 | 0.00 | 0.00 | 90 | 1013.9 |
| 20260903104838 | 78 | 234 | 8.0 | 10.0 | 0.00 | 0.00 | 0.00 | 90 | 1013.8 |
| 20260903104333 | 78 | 262 | 7.0 | 9.0 | 0.00 | 0.00 | 0.00 | 90 | 1013.9 |
| 20260903103830 | 78 | 234 | 8.0 | 9.0 | 0.00 | 0.00 | 0.00 | 90 | 1013.9 |
| 20260903103326 | 78 | 240 | 11.0 | 14.0 | 0.00 | 0.00 | 0.00 | 90 | 1013.9 |
| 20260903102821 | 78 | 215 | 7.0 | 9.0 | 0.00 | 0.00 | 0.00 | 90 | 1014.1 |
| 20260903102316 | 78 | 203 | 10.0 | 13.0 | 0.00 | 0.00 | 0.00 | 90 | 1013.8 |
| 20260903101815 | 78 | 219 | 10.0 | 13.0 | 0.00 | 0.00 | 0.00 | 90 | 1013.9 |
| 20260903101310 | 78 | 205 | 11.0 | 15.0 | 0.00 | 0.00 | 0.00 | 90 | 1013.6 |
| 20260903100806 | 78 | 225 | 8.0 | 10.0 | 0.00 | 0.00 | 0.00 | 90 | 1013.7 |
| 20260903100300 | 78 | 221 | 7.0 | 10.0 | 0.00 | 0.00 | 0.00 | 89 | 1013.6 |
| 20260903095757 | 78 | 216 | 9.0 | 9.0 | 0.00 | 0.00 | 0.00 | 89 | 1013.9 |
| 20260903095252 | 78 | 226 | 7.0 | 7.0 | 0.00 | 0.00 | 0.00 | 89 | 1013.7 |
| 20260903094747 | 78 | 188 | 10.0 | 10.0 | 0.00 | 0.00 | 0.00 | 89 | 1014.0 |
| 20260903094242 | 78 | 230 | 9.0 | 10.0 | 0.00 | 0.00 | 0.00 | 89 | 1013.8 |
| 20260903093737 | 78 | 185 | 6.0 | 7.0 | 0.00 | 0.00 | 0.00 | 89 | 1014.1 |
| 20260903093233 | 78 | 218 | 7.0 | 9.0 | 0.00 | 0.00 | 0.00 | 89 | 1014.0 |
| 20260903092732 | 78 | 205 | 9.0 | 10.0 | 0.00 | 0.00 | 0.00 | 88 | 1014.0 |
| 20260903092227 | 78 | 222 | 7.0 | 9.0 | 0.00 | 0.00 | 0.00 | 88 | 1014.1 |
| 20260903091726 | 78 | 191 | 6.0 | 7.0 | 0.00 | 0.00 | 0.00 | 88 | 1013.9 |
| 20260903091221 | 78 | 238 | 9.0 | 13.0 | 0.00 | 0.00 | 0.00 | 88 | 1014.0 |
| 20260903090716 | 79 | 212 | 8.0 | 10.0 | 0.00 | 0.00 | 0.00 | 88 | 1014.2 |
| 20260903090214 | 79 | 236 | 10.0 | 14.0 | 0.00 | 0.00 | 0.00 | 88 | 1014.1 |
| 20260903085713 | 79 | 240 | 9.0 | 13.0 | 0.00 | 0.00 | 0.00 | 87 | 1014.4 |
| 20260903085208 | 79 | 199 | 9.0 | 11.0 | 0.00 | 0.00 | 0.00 | 87 | 1014.2 |
| 20260903084706 | 79 | 200 | 9.0 | 10.0 | 0.00 | 0.00 | 0.00 | 87 | 1014.1 |
| 20260903084201 | 79 | 207 | 7.0 | 8.0 | 0.00 | 0.00 | 0.00 | 87 | 1014.3 |
| 20260903083657 | 79 | 231 | 8.0 | 9.0 | 0.00 | 0.00 | 0.00 | 87 | 1014.2 |
| 20260903083151 | 79 | 229 | 10.0 | 13.0 | 0.00 | 0.00 | 0.00 | 87 | 1014.3 |
| 20260903082646 | 79 | 150 | 7.0 | 8.0 | 0.00 | 0.00 | 0.00 | 86 | 1014.1 |
| 20260903082141 | 79 | 198 | 11.0 | 15.0 | 0.00 | 0.00 | 0.00 | 86 | 1014.2 |
| 20260903081636 | 79 | 246 | 7.0 | 8.0 | 0.00 | 0.00 | 0.00 | 86 | 1014.2 |
| 20260903081132 | 79 | 224 | 12.0 | 14.0 | 0.00 | 0.00 | 0.00 | 85 | 1014.1 |
| 20260903080628 | 79 | 184 | 11.0 | 14.0 | 0.00 | 0.00 | 0.00 | 85 | 1014.1 |
| 20260903080125 | 79 | 221 | 9.0 | 10.0 | 0.00 | 0.00 | 0.00 | 84 | 1014.2 |
| 20260903075618 | 79 | 244 | 12.0 | 17.0 | 0.00 | 0.00 | 0.00 | 84 | 1014.1 |
| 20260903075114 | 80 | 221 | 8.0 | 9.0 | 0.00 | 0.00 | 0.00 | 83 | 1014.1 |
| 20260903074613 | 80 | 206 | 9.0 | 11.0 | 0.00 | 0.00 | 0.00 | 83 | 1014.2 |
| 20260903074108 | 80 | 220 | 7.0 | 10.0 | 0.00 | 0.00 | 0.00 | 82 | 1014.2 |
| 20260903073604 | 80 | 226 | 9.0 | 10.0 | 0.00 | 0.00 | 0.00 | 81 | 1014.3 |
| 20260903073059 | 80 | 197 | 9.0 | 10.0 | 0.00 | 0.00 | 0.00 | 81 | 1014.4 |
| 20260903072555 | 80 | 222 | 9.0 | 11.0 | 0.00 | 0.00 | 0.00 | 80 | 1014.3 |
| 20260903072051 | 80 | 220 | 9.0 | 10.0 | 0.00 | 0.00 | 0.00 | 80 | 1014.2 |
| 20260903071548 | 80 | 216 | 8.0 | 9.0 | 0.00 | 0.00 | 0.00 | 79 | 1014.3 |
| 20260903071047 | 81 | 212 | 10.0 | 11.0 | 0.00 | 0.00 | 0.00 | 79 | 1014.4 |
| 20260903070542 | 81 | 170 | 8.0 | 9.0 | 0.00 | 0.00 | 0.00 | 79 | 1014.2 |
| 20260903070038 | 81 | 200 | 8.0 | 10.0 | 0.00 | 0.00 | 0.00 | 78 | 1014.5 |
| 20260903065536 | 81 | 215 | 7.0 | 8.0 | 0.00 | 0.00 | 0.00 | 78 | 1014.5 |
| 20260903065031 | 81 | 209 | 11.0 | 14.0 | 0.00 | 0.00 | 0.00 | 78 | 1014.6 |
| 20260903064530 | 81 | 204 | 6.0 | 7.0 | 0.00 | 0.00 | 0.00 | 77 | 1014.5 |
| 20260903064026 | 81 | 217 | 6.0 | 7.0 | 0.00 | 0.00 | 0.00 | 76 | 1014.5 |
| 20260903063522 | 81 | 201 | 7.0 | 9.0 | 0.00 | 0.00 | 0.00 | 76 | 1014.8 |
| 20260903063017 | 81 | 225 | 11.0 | 13.0 | 0.00 | 0.00 | 0.00 | 75 | 1014.7 |
| 20260903062512 | 82 | 186 | 8.0 | 9.0 | 0.00 | 0.00 | 0.00 | 75 | 1014.7 |
| 20260903062008 | 82 | 207 | 9.0 | 10.0 | 0.00 | 0.00 | 0.00 | 74 | 1014.9 |
| 20260903061503 | 82 | 249 | 7.0 | 9.0 | 0.00 | 0.00 | 0.00 | 73 | 1014.7 |
| 20260903060957 | 82 | 246 | 5.0 | 7.0 | 0.00 | 0.00 | 0.00 | 72 | 1014.7 |
| 20260903060452 | 82 | 220 | 12.0 | 13.0 | 0.00 | 0.00 | 0.00 | 72 | 1014.9 |
| 20260903055950 | 82 | 206 | 7.0 | 10.0 | 0.00 | 0.00 | 0.00 | 71 | 1014.7 |
| 20260903055448 | 82 | 197 | 5.0 | 8.0 | 0.00 | 0.00 | 0.00 | 71 | 1014.7 |
| 20260903054943 | 82 | 236 | 7.0 | 8.0 | 0.00 | 0.00 | 0.00 | 71 | 1014.7 |
| 20260903054437 | 82 | 252 | 4.0 | 6.0 | 0.00 | 0.00 | 0.00 | 71 | 1014.7 |
| 20260903053934 | 82 | 193 | 8.0 | 9.0 | 0.00 | 0.00 | 0.00 | 71 | 1014.4 |
| 20260903053433 | 82 | 213 | 7.0 | 8.0 | 0.00 | 0.00 | 0.00 | 71 | 1014.6 |
| 20260903052931 | 82 | 259 | 6.0 | 7.0 | 0.00 | 0.00 | 0.00 | 71 | 1014.6 |
| 20260903052425 | 82 | 175 | 6.0 | 7.0 | 0.00 | 0.00 | 0.00 | 71 | 1014.7 |
| 20260903051921 | 82 | 154 | 12.0 | 15.0 | 0.00 | 0.00 | 0.00 | 71 | 1014.5 |
| 20260903051416 | 81 | 179 | 7.0 | 7.0 | 0.00 | 0.00 | 0.00 | 73 | 1014.4 |
| 20260903050912 | 81 | 198 | 4.0 | 5.0 | 0.00 | 0.00 | 0.00 | 76 | 1014.2 |
| 20260903050410 | 80 | 203 | 5.0 | 7.0 | 0.00 | 0.00 | 0.00 | 77 | 1014.5 |
| 20260903045905 | 80 | 156 | 5.0 | 7.0 | 0.00 | 0.00 | 0.00 | 77 | 1014.3 |
| 20260903045400 | 80 | 168 | 4.0 | 5.0 | 0.00 | 0.00 | 0.00 | 77 | 1014.5 |
| 20260903044852 | 80 | 100 | 9.0 | 10.0 | 0.00 | 0.00 | 0.00 | 77 | 1014.4 |
| 20260903044352 | 81 | 130 | 6.0 | 8.0 | 0.00 | 0.00 | 0.00 | 77 | 1014.4 |
| 20260903043848 | 81 | 94 | 2.0 | 2.0 | 0.00 | 0.00 | 0.00 | 76 | 1014.3 |
| 20260903043343 | 81 | 145 | 3.0 | 3.0 | 0.00 | 0.00 | 0.00 | 75 | 1014.6 |
| 20260903042842 | 81 | 87 | 2.0 | 3.0 | 0.00 | 0.00 | 0.00 | 75 | 1014.4 |
| 20260903042337 | 81 | 122 | 5.0 | 7.0 | 0.00 | 0.00 | 0.00 | 74 | 1014.5 |
| 20260903041833 | 81 | 135 | 5.0 | 8.0 | 0.00 | 0.00 | 0.00 | 74 | 1014.4 |
| 20260903041329 | 82 | 97 | 9.0 | 13.0 | 0.00 | 0.00 | 0.00 | 73 | 1014.4 |
| 20260903040825 | 82 | 91 | 7.0 | 10.0 | 0.00 | 0.00 | 0.00 | 71 | 1014.5 |
| 20260903040324 | 82 | 65 | 4.0 | 5.0 | 0.00 | 0.00 | 0.00 | 70 | 1014.4 |
| 20260903035820 | 83 | 128 | 8.0 | 10.0 | 0.00 | 0.00 | 0.00 | 69 | 1014.4 |
| 20260903035315 | 84 | 111 | 3.0 | 6.0 | 0.00 | 0.00 | 0.00 | 68 | 1014.5 |
| 20260903034810 | 84 | 115 | 17.0 | 22.0 | 0.00 | 0.00 | 0.00 | 65 | 1014.4 |
| 20260903034305 | 85 | 172 | 6.0 | 9.0 | 0.00 | 0.00 | 0.00 | 63 | 1014.4 |
| 20260903033801 | 86 | 94 | 6.0 | 9.0 | 0.00 | 0.00 | 0.00 | 61 | 1014.0 |
| 20260903033255 | 86 | 139 | 6.0 | 8.0 | 0.00 | 0.00 | 0.00 | 61 | 1014.2 |
| 20260903032750 | 87 | 115 | 9.0 | 10.0 | 0.00 | 0.00 | 0.00 | 60 | 1014.1 |
| 20260903032246 | 87 | 101 | 5.0 | 8.0 | 0.00 | 0.00 | 0.00 | 60 | 1014.2 |
| 20260903031741 | 88 | 104 | 3.0 | 7.0 | 0.00 | 0.00 | 0.00 | 59 | 1014.1 |
| 20260903031235 | 88 | 127 | 2.0 | 3.0 | 0.00 | 0.00 | 0.00 | 58 | 1013.9 |
| 20260903030731 | 88 | 117 | 4.0 | 5.0 | 0.00 | 0.00 | 0.00 | 57 | 1013.8 |
| 20260903030227 | 88 | 121 | 3.0 | 3.0 | 0.00 | 0.00 | 0.00 | 58 | 1013.6 |
| 20260903025722 | 88 | 120 | 3.0 | 3.0 | 0.00 | 0.00 | 0.00 | 57 | 1013.5 |
| 20260903025218 | 88 | 352 | 1.0 | 2.0 | 0.00 | 0.00 | 0.00 | 58 | 1013.6 |
| 20260903024717 | 88 | 319 | 1.0 | 1.0 | 0.00 | 0.00 | 0.00 | 58 | 1013.5 |
| 20260903024216 | 88 | 56 | 2.0 | 2.0 | 0.00 | 0.00 | 0.00 | 58 | 1013.3 |
| 20260903023713 | 88 | 63 | 3.0 | 5.0 | 0.00 | 0.00 | 0.00 | 57 | 1013.5 |
| 20260903023208 | 89 | 101 | 4.0 | 6.0 | 0.00 | 0.00 | 0.00 | 57 | 1013.2 |
| 20260903022708 | 89 | 55 | 1.0 | 2.0 | 0.00 | 0.00 | 0.00 | 57 | 1013.0 |
| 20260903022206 | 89 | 87 | 3.0 | 3.0 | 0.00 | 0.00 | 0.00 | 56 | 1013.2 |
| 20260903021701 | 89 | 307 | 2.0 | 3.0 | 0.00 | 0.00 | 0.00 | 56 | 1013.2 |
| 20260903021156 | 89 | 357 | 1.0 | 2.0 | 0.00 | 0.00 | 0.00 | 56 | 1012.6 |
| 20260903020651 | 89 | 120 | 3.0 | 3.0 | 0.00 | 0.00 | 0.00 | 55 | 1012.6 |
| 20260903020151 | 89 | 12 | 3.0 | 5.0 | 0.00 | 0.00 | 0.00 | 55 | 1012.6 |
| 20260903015646 | 89 | 94 | 2.0 | 2.0 | 0.00 | 0.00 | 0.00 | 55 | 1012.6 |
| 20260903015142 | 90 | 0 | 2.0 | 2.0 | 0.00 | 0.00 | 0.00 | 54 | 1012.6 |
| 20260903014636 | 90 | 146 | 3.0 | 5.0 | 0.00 | 0.00 | 0.00 | 53 | 1012.6 |
| 20260903014135 | 91 | 327 | 1.0 | 1.0 | 0.00 | 0.00 | 0.00 | 53 | 1012.6 |
| 20260903013630 | 91 | 355 | 1.0 | 2.0 | 0.00 | 0.00 | 0.00 | 53 | 1012.4 |
| 20260903013125 | 91 | 330 | 0.0 | 0.0 | 0.00 | 0.00 | 0.00 | 52 | 1012.2 |
| 20260903012624 | 91 | 342 | 1.0 | 1.0 | 0.00 | 0.00 | 0.00 | 52 | 1012.2 |
| 20260903012123 | 91 | 16 | 1.0 | 2.0 | 0.00 | 0.00 | 0.00 | 52 | 1012.5 |
| 20260903011622 | 91 | 79 | 2.0 | 2.0 | 0.00 | 0.00 | 0.00 | 52 | 1012.3 |
| 20260903011117 | 91 | 159 | 2.0 | 2.0 | 0.00 | 0.00 | 0.00 | 52 | 1012.3 |
| 20260903010613 | 91 | 327 | 1.0 | 1.0 | 0.00 | 0.00 | 0.00 | 52 | 1012.3 |
| 20260903010111 | 91 | 318 | 1.0 | 2.0 | 0.00 | 0.00 | 0.00 | 52 | 1012.3 |
| 20260903005606 | 91 | 106 | 4.0 | 5.0 | 0.00 | 0.00 | 0.00 | 52 | 1012.3 |
| 20260903005102 | 92 | 321 | 0.0 | 0.0 | 0.00 | 0.00 | 0.00 | 51 | 1012.4 |
| 20260903004601 | 92 | 111 | 3.0 | 5.0 | 0.00 | 0.00 | 0.00 | 50 | 1012.4 |
| 20260903004057 | 92 | 143 | 2.0 | 3.0 | 0.00 | 0.00 | 0.00 | 49 | 1012.4 |
| 20260903003552 | 93 | 137 | 3.0 | 5.0 | 0.00 | 0.00 | 0.00 | 49 | 1012.4 |
| 20260903003047 | 93 | 120 | 3.0 | 5.0 | 0.00 | 0.00 | 0.00 | 48 | 1012.6 |
| 20260903002542 | 93 | 139 | 4.0 | 5.0 | 0.00 | 0.00 | 0.00 | 48 | 1012.5 |
| 20260903002037 | 93 | 84 | 5.0 | 6.0 | 0.00 | 0.00 | 0.00 | 48 | 1012.4 |
| 20260903001532 | 93 | 156 | 4.0 | 5.0 | 0.00 | 0.00 | 0.00 | 48 | 1012.4 |
| 20260903001031 | 94 | 5 | 1.0 | 2.0 | 0.00 | 0.00 | 0.00 | 45 | 1012.1 |
| 20260903000527 | 94 | 100 | 3.0 | 3.0 | 0.00 | 0.00 | 0.00 | 45 | 1012.3 |
| 20260903000026 | 94 | 350 | 1.0 | 1.0 | 0.00 | 0.00 | 0.00 | 46 | 1012.3 |
| 20260902235520 | 94 | 356 | 2.0 | 2.0 | 0.00 | 0.00 | 0.00 | 45 | 1012.4 |
| 20260902235015 | 94 | 329 | 1.0 | 2.0 | 0.00 | 0.00 | 0.00 | 45 | 1012.4 |
| 20260902234509 | 94 | 57 | 1.0 | 3.0 | 0.00 | 0.00 | 0.00 | 46 | 1012.4 |
| 20260902234008 | 94 | 23 | 3.0 | 3.0 | 0.00 | 0.00 | 0.00 | 45 | 1012.2 |
| 20260902233502 | 94 | 99 | 4.0 | 5.0 | 0.00 | 0.00 | 0.00 | 46 | 1012.3 |
| 20260902232956 | 94 | 340 | 3.0 | 3.0 | 0.00 | 0.00 | 0.00 | 47 | 1012.1 |
| 20260902232450 | 93 | 61 | 5.0 | 8.0 | 0.00 | 0.00 | 0.00 | 47 | 1012.6 |
| 20260902231944 | 94 | 101 | 7.0 | 10.0 | 0.00 | 0.00 | 0.00 | 47 | 1012.4 |
| 20260902231439 | 94 | 60 | 5.0 | 8.0 | 0.00 | 0.00 | 0.00 | 46 | 1012.5 |
| 20260902230934 | 97 | 346 | 1.0 | 2.0 | 0.00 | 0.00 | 0.00 | 40 | 1012.2 |
| 20260902230433 | 97 | 310 | 2.0 | 2.0 | 0.00 | 0.00 | 0.00 | 41 | 1012.2 |
| 20260902225927 | 98 | 296 | 1.0 | 1.0 | 0.00 | 0.00 | 0.00 | 40 | 1012.0 |
| 20260902225417 | 96 | 308 | 1.0 | 2.0 | 0.00 | 0.00 | 0.00 | 42 | 1012.4 |
| 20260902224915 | 96 | 297 | 1.0 | 1.0 | 0.00 | 0.00 | 0.00 | 42 | 1012.2 |
| 20260902224409 | 98 | 298 | 3.0 | 5.0 | 0.00 | 0.00 | 0.00 | 41 | 1012.3 |
| 20260902223906 | 100 | 305 | 1.0 | 2.0 | 0.00 | 0.00 | 0.00 | 38 | 1012.1 |
| 20260902223407 | 99 | 283 | 1.0 | 2.0 | 0.00 | 0.00 | 0.00 | 39 | 1012.2 |
| 20260902222901 | 98 | 280 | 2.0 | 2.0 | 0.00 | 0.00 | 0.00 | 39 | 1012.1 |
| 20260902222400 | 97 | 299 | 1.0 | 2.0 | 0.00 | 0.00 | 0.00 | 41 | 1012.5 |
| 20260902221900 | 98 | 280 | 1.0 | 1.0 | 0.00 | 0.00 | 0.00 | 40 | 1012.3 |
| 20260902221359 | 98 | 280 | 2.0 | 2.0 | 0.00 | 0.00 | 0.00 | 40 | 1012.3 |
| 20260902220855 | 99 | 303 | 2.0 | 2.0 | 0.00 | 0.00 | 0.00 | 39 | 1012.4 |
| 20260902220354 | 99 | 299 | 1.0 | 1.0 | 0.00 | 0.00 | 0.00 | 39 | 1012.3 |
| 20260902215849 | 98 | 212 | 5.0 | 6.0 | 0.00 | 0.00 | 0.00 | 40 | 1012.3 |
| 20260902215344 | 98 | 222 | 6.0 | 7.0 | 0.00 | 0.00 | 0.00 | 39 | 1012.5 |
| 20260902214840 | 97 | 189 | 5.0 | 6.0 | 0.00 | 0.00 | 0.00 | 40 | 1012.4 |
| 20260902214339 | 98 | 206 | 7.0 | 9.0 | 0.00 | 0.00 | 0.00 | 40 | 1012.9 |
| 20260902213834 | 98 | 202 | 4.0 | 5.0 | 0.00 | 0.00 | 0.00 | 40 | 1012.6 |
| 20260902213330 | 98 | 209 | 2.0 | 3.0 | 0.00 | 0.00 | 0.00 | 40 | 1012.6 |
| 20260902212828 | 98 | 212 | 3.0 | 3.0 | 0.00 | 0.00 | 0.00 | 40 | 1012.6 |
| 20260902212325 | 96 | 286 | 2.0 | 2.0 | 0.00 | 0.00 | 0.00 | 41 | 1012.7 |
| 20260902211822 | 96 | 234 | 3.0 | 3.0 | 0.00 | 0.00 | 0.00 | 43 | 1012.7 |
| 20260902211317 | 96 | 209 | 4.0 | 5.0 | 0.00 | 0.00 | 0.00 | 42 | 1012.9 |
| 20260902210812 | 97 | 268 | 5.0 | 6.0 | 0.00 | 0.00 | 0.00 | 42 | 1012.6 |
| 20260902210306 | 97 | 200 | 6.0 | 7.0 | 0.00 | 0.00 | 0.00 | 41 | 1012.9 |
| 20260902205804 | 96 | 302 | 3.0 | 3.0 | 0.00 | 0.00 | 0.00 | 43 | 1012.9 |
| 20260902205259 | 96 | 270 | 3.0 | 3.0 | 0.00 | 0.00 | 0.00 | 43 | 1013.1 |
| 20260902204754 | 96 | 287 | 2.0 | 2.0 | 0.00 | 0.00 | 0.00 | 44 | 1013.3 |
| 20260902204250 | 96 | 263 | 2.0 | 2.0 | 0.00 | 0.00 | 0.00 | 43 | 1013.2 |
| 20260902203745 | 96 | 227 | 3.0 | 5.0 | 0.00 | 0.00 | 0.00 | 43 | 1013.3 |
| 20260902203245 | 96 | 308 | 1.0 | 1.0 | 0.00 | 0.00 | 0.00 | 43 | 1013.3 |
| 20260902202740 | 95 | 290 | 1.0 | 1.0 | 0.00 | 0.00 | 0.00 | 44 | 1013.5 |
| 20260902202236 | 95 | 227 | 4.0 | 5.0 | 0.00 | 0.00 | 0.00 | 44 | 1013.4 |
| 20260902201733 | 95 | 217 | 3.0 | 5.0 | 0.00 | 0.00 | 0.00 | 44 | 1013.5 |
| 20260902201232 | 96 | 229 | 3.0 | 5.0 | 0.00 | 0.00 | 0.00 | 43 | 1013.8 |
| 20260902200727 | 98 | 204 | 7.0 | 9.0 | 0.00 | 0.00 | 0.00 | 42 | 1013.7 |
| 20260902200223 | 96 | 338 | 2.0 | 2.0 | 0.00 | 0.00 | 0.00 | 43 | 1013.7 |
| 20260902195718 | 98 | 272 | 2.0 | 2.0 | 0.00 | 0.00 | 0.00 | 41 | 1014.0 |
| 20260902195217 | 99 | 215 | 5.0 | 6.0 | 0.00 | 0.00 | 0.00 | 40 | 1014.0 |
| 20260902194717 | 99 | 292 | 1.0 | 2.0 | 0.00 | 0.00 | 0.00 | 40 | 1013.8 |
| 20260902194212 | 97 | 246 | 2.0 | 2.0 | 0.00 | 0.00 | 0.00 | 42 | 1014.1 |
| 20260902193707 | 97 | 306 | 0.0 | 1.0 | 0.00 | 0.00 | 0.00 | 42 | 1014.0 |
| 20260902193203 | 97 | 346 | 1.0 | 1.0 | 0.00 | 0.00 | 0.00 | 42 | 1014.1 |
| 20260902192701 | 96 | 326 | 0.0 | 0.0 | 0.00 | 0.00 | 0.00 | 43 | 1014.2 |
| 20260902192200 | 96 | 3 | 1.0 | 1.0 | 0.00 | 0.00 | 0.00 | 43 | 1014.2 |
| 20260902191655 | 95 | 131 | 3.0 | 3.0 | 0.00 | 0.00 | 0.00 | 43 | 1014.3 |
| 20260902191149 | 96 | 81 | 2.0 | 3.0 | 0.00 | 0.00 | 0.00 | 43 | 1014.5 |
| 20260902190645 | 96 | 319 | 1.0 | 2.0 | 0.00 | 0.00 | 0.00 | 43 | 1014.6 |
| 20260902190140 | 96 | 343 | 1.0 | 1.0 | 0.00 | 0.00 | 0.00 | 42 | 1014.7 |
| 20260902185635 | 98 | 325 | 2.0 | 5.0 | 0.00 | 0.00 | 0.00 | 42 | 1014.7 |
| 20260902185131 | 97 | 146 | 3.0 | 5.0 | 0.00 | 0.00 | 0.00 | 42 | 1014.8 |
| 20260902184626 | 98 | 112 | 4.0 | 6.0 | 0.00 | 0.00 | 0.00 | 40 | 1014.7 |
| 20260902184122 | 99 | 139 | 4.0 | 6.0 | 0.00 | 0.00 | 0.00 | 41 | 1014.9 |
| 20260902183618 | 100 | 26 | 3.0 | 3.0 | 0.00 | 0.00 | 0.00 | 39 | 1014.9 |
| 20260902183114 | 97 | 314 | 1.0 | 2.0 | 0.00 | 0.00 | 0.00 | 42 | 1015.0 |
| 20260902182610 | 93 | 325 | 2.0 | 2.0 | 0.00 | 0.00 | 0.00 | 47 | 1015.2 |
| 20260902182106 | 93 | 341 | 7.0 | 9.0 | 0.00 | 0.00 | 0.00 | 47 | 1015.3 |
| 20260902181602 | 95 | 335 | 7.0 | 9.0 | 0.00 | 0.00 | 0.00 | 45 | 1015.4 |
| 20260902181101 | 95 | 209 | 3.0 | 3.0 | 0.00 | 0.00 | 0.00 | 45 | 1015.5 |
| 20260902180601 | 96 | 204 | 5.0 | 7.0 | 0.00 | 0.00 | 0.00 | 45 | 1015.4 |
| 20260902180057 | 95 | 293 | 2.0 | 2.0 | 0.00 | 0.00 | 0.00 | 46 | 1015.5 |
| 20260902175556 | 94 | 205 | 7.0 | 8.0 | 0.00 | 0.00 | 0.00 | 47 | 1015.8 |
| 20260902175052 | 95 | 170 | 4.0 | 6.0 | 0.00 | 0.00 | 0.00 | 47 | 1015.8 |
| 20260902174549 | 96 | 251 | 2.0 | 3.0 | 0.00 | 0.00 | 0.00 | 46 | 1015.9 |
| 20260902174044 | 95 | 210 | 1.0 | 2.0 | 0.00 | 0.00 | 0.00 | 47 | 1016.2 |
| 20260902173543 | 94 | 302 | 1.0 | 1.0 | 0.00 | 0.00 | 0.00 | 47 | 1016.1 |
| 20260902173038 | 95 | 268 | 6.0 | 8.0 | 0.00 | 0.00 | 0.00 | 47 | 1016.2 |
| 20260902172533 | 95 | 220 | 3.0 | 5.0 | 0.00 | 0.00 | 0.00 | 46 | 1016.4 |
| 20260902172028 | 93 | 46 | 0.0 | 1.0 | 0.00 | 0.00 | 0.00 | 49 | 1016.3 |
| 20260902171524 | 93 | 201 | 6.0 | 9.0 | 0.00 | 0.00 | 0.00 | 49 | 1016.3 |
| 20260902171020 | 93 | 277 | 1.0 | 1.0 | 0.00 | 0.00 | 0.00 | 49 | 1016.6 |
| 20260902170514 | 95 | 310 | 2.0 | 2.0 | 0.00 | 0.00 | 0.00 | 47 | 1016.6 |
| 20260902170011 | 94 | 327 | 6.0 | 7.0 | 0.00 | 0.00 | 0.00 | 48 | 1016.6 |
| 20260902165509 | 93 | 190 | 5.0 | 6.0 | 0.00 | 0.00 | 0.00 | 51 | 1016.6 |
| 20260902165004 | 93 | 284 | 4.0 | 5.0 | 0.00 | 0.00 | 0.00 | 50 | 1016.8 |
| 20260902164459 | 91 | 243 | 2.0 | 3.0 | 0.00 | 0.00 | 0.00 | 53 | 1016.9 |
| 20260902163958 | 91 | 260 | 3.0 | 3.0 | 0.00 | 0.00 | 0.00 | 53 | 1017.0 |
| 20260902163454 | 91 | 277 | 3.0 | 5.0 | 0.00 | 0.00 | 0.00 | 54 | 1016.9 |
| 20260902162951 | 91 | 296 | 2.0 | 3.0 | 0.00 | 0.00 | 0.00 | 53 | 1016.8 |
| 20260902162446 | 90 | 303 | 5.0 | 6.0 | 0.00 | 0.00 | 0.00 | 54 | 1017.1 |
| 20260902161941 | 90 | 265 | 3.0 | 3.0 | 0.00 | 0.00 | 0.00 | 55 | 1016.9 |
| 20260902161436 | 90 | 228 | 5.0 | 6.0 | 0.00 | 0.00 | 0.00 | 54 | 1016.9 |
| 20260902160932 | 90 | 298 | 4.0 | 5.0 | 0.00 | 0.00 | 0.00 | 54 | 1016.9 |
| 20260902160427 | 90 | 239 | 3.0 | 3.0 | 0.00 | 0.00 | 0.00 | 54 | 1017.2 |
| 20260902155925 | 89 | 196 | 3.0 | 3.0 | 0.00 | 0.00 | 0.00 | 56 | 1017.0 |
| 20260902155420 | 89 | 306 | 2.0 | 2.0 | 0.00 | 0.00 | 0.00 | 56 | 1016.8 |
| 20260902154915 | 89 | 275 | 3.0 | 3.0 | 0.00 | 0.00 | 0.00 | 56 | 1016.9 |
| 20260902154410 | 88 | 300 | 2.0 | 3.0 | 0.00 | 0.00 | 0.00 | 57 | 1017.1 |
| 20260902153909 | 88 | 232 | 4.0 | 5.0 | 0.00 | 0.00 | 0.00 | 58 | 1017.0 |
| 20260902153408 | 87 | 248 | 4.0 | 5.0 | 0.00 | 0.00 | 0.00 | 58 | 1017.0 |
| 20260902152904 | 87 | 274 | 4.0 | 5.0 | 0.00 | 0.00 | 0.00 | 58 | 1016.9 |
| 20260902152400 | 86 | 270 | 5.0 | 6.0 | 0.00 | 0.00 | 0.00 | 61 | 1017.0 |
| 20260902151855 | 86 | 237 | 3.0 | 5.0 | 0.00 | 0.00 | 0.00 | 61 | 1017.1 |
| 20260902151350 | 87 | 323 | 5.0 | 8.0 | 0.00 | 0.00 | 0.00 | 60 | 1017.3 |
| 20260902150845 | 87 | 284 | 2.0 | 2.0 | 0.00 | 0.00 | 0.00 | 61 | 1017.1 |
| 20260902150342 | 86 | 294 | 5.0 | 7.0 | 0.00 | 0.00 | 0.00 | 61 | 1016.9 |
| 20260902145841 | 86 | 287 | 2.0 | 2.0 | 0.00 | 0.00 | 0.00 | 62 | 1016.9 |
| 20260902145336 | 87 | 212 | 4.0 | 6.0 | 0.00 | 0.00 | 0.00 | 61 | 1017.1 |
| 20260902144831 | 86 | 298 | 6.0 | 7.0 | 0.00 | 0.00 | 0.00 | 61 | 1016.7 |
| 20260902144327 | 86 | 268 | 6.0 | 7.0 | 0.00 | 0.00 | 0.00 | 62 | 1016.7 |
| 20260902143821 | 85 | 231 | 5.0 | 7.0 | 0.00 | 0.00 | 0.00 | 64 | 1016.8 |
| 20260902143316 | 85 | 224 | 5.0 | 8.0 | 0.00 | 0.00 | 0.00 | 64 | 1016.9 |
| 20260902142812 | 85 | 239 | 3.0 | 5.0 | 0.00 | 0.00 | 0.00 | 64 | 1016.9 |
| 20260902142308 | 84 | 289 | 4.0 | 5.0 | 0.00 | 0.00 | 0.00 | 64 | 1016.9 |
| 20260902141803 | 83 | 235 | 5.0 | 6.0 | 0.00 | 0.00 | 0.00 | 69 | 1016.8 |
| 20260902141258 | 83 | 213 | 5.0 | 7.0 | 0.00 | 0.00 | 0.00 | 70 | 1016.8 |
| 20260902140752 | 82 | 274 | 3.0 | 5.0 | 0.00 | 0.00 | 0.00 | 71 | 1017.0 |
| 20260902140248 | 82 | 251 | 3.0 | 3.0 | 0.00 | 0.00 | 0.00 | 71 | 1016.8 |
| 20260902135747 | 81 | 206 | 3.0 | 5.0 | 0.00 | 0.00 | 0.00 | 73 | 1016.9 |
| 20260902135243 | 81 | 263 | 5.0 | 6.0 | 0.00 | 0.00 | 0.00 | 74 | 1016.9 |
| 20260902134742 | 80 | 284 | 1.0 | 2.0 | 0.00 | 0.00 | 0.00 | 75 | 1017.0 |
| 20260902134237 | 80 | 241 | 3.0 | 5.0 | 0.00 | 0.00 | 0.00 | 75 | 1016.8 |
| 20260902133733 | 79 | 236 | 3.0 | 6.0 | 0.00 | 0.00 | 0.00 | 76 | 1016.9 |
| 20260902133231 | 79 | 257 | 3.0 | 3.0 | 0.00 | 0.00 | 0.00 | 77 | 1016.8 |
| 20260902132727 | 79 | 226 | 3.0 | 3.0 | 0.00 | 0.00 | 0.00 | 78 | 1016.6 |
| 20260902132217 | 78 | 263 | 4.0 | 5.0 | 0.00 | 0.00 | 0.00 | 78 | 1016.8 |
| 20260902131712 | 78 | 266 | 3.0 | 3.0 | 0.00 | 0.00 | 0.00 | 79 | 1016.5 |
| 20260902131208 | 77 | 270 | 3.0 | 3.0 | 0.00 | 0.00 | 0.00 | 79 | 1016.3 |
| 20260902130703 | 77 | 226 | 4.0 | 5.0 | 0.00 | 0.00 | 0.00 | 80 | 1016.3 |
| 20260902130159 | 77 | 278 | 2.0 | 3.0 | 0.00 | 0.00 | 0.00 | 80 | 1016.4 |